| time (UTC) | temp C | wind direction | speed KPH | gust KPH | rain 1hr cm | rain 24hr cm | rain mn cm | humidity % | barometer mb |
| 20260509123016 | 12 | 103 | 3.2 | 20.9 | 0.00 | 0.99 | 0.00 | 56 | 991.8 |
| 20260509121512 | 12 | 82 | 11.3 | 29.0 | 0.00 | 0.99 | 0.00 | 55 | 991.6 |
| 20260509120007 | 12 | 290 | 3.2 | 25.7 | 0.00 | 1.02 | 0.99 | 55 | 991.6 |
| 20260509114506 | 12 | 89 | 6.4 | 22.5 | 0.00 | 1.02 | 0.99 | 55 | 991.8 |
| 20260509113005 | 12 | 217 | 4.8 | 17.7 | 0.00 | 1.02 | 0.99 | 55 | 992.1 |
| 20260509111505 | 12 | 300 | 9.7 | 25.7 | 0.00 | 1.02 | 0.99 | 55 | 992.3 |
| 20260509110004 | 12 | 155 | 9.7 | 33.8 | 0.00 | 1.07 | 0.99 | 54 | 992.6 |
| 20260509104504 | 12 | 120 | 11.3 | 35.4 | 0.00 | 1.07 | 0.99 | 54 | 992.4 |
| 20260509103002 | 12 | 141 | 8.0 | 25.7 | 0.00 | 1.07 | 0.99 | 56 | 992.7 |
| 20260509101502 | 12 | 210 | 11.3 | 29.0 | 0.00 | 1.07 | 0.99 | 57 | 992.8 |
| 20260509100003 | 12 | 127 | 9.7 | 29.0 | 0.00 | 1.07 | 0.99 | 58 | 992.7 |
| 20260509094501 | 12 | 140 | 11.3 | 24.1 | 0.00 | 1.07 | 0.99 | 59 | 993.1 |
| 20260509093101 | 12 | 144 | 3.2 | 14.5 | 0.00 | 1.07 | 0.99 | 59 | 993.3 |
| 20260509091605 | 12 | 105 | 8.0 | 25.7 | 0.00 | 1.07 | 0.99 | 59 | 993.6 |
| 20260509090109 | 11 | 201 | 9.7 | 19.3 | 0.00 | 1.07 | 0.99 | 58 | 993.5 |
| 20260509084603 | 11 | 118 | 6.4 | 16.1 | 0.00 | 1.07 | 0.99 | 59 | 993.4 |
| 20260509083201 | 11 | 67 | 9.7 | 25.7 | 0.00 | 1.07 | 0.99 | 59 | 993.4 |
| 20260509081557 | 11 | 146 | 6.4 | 20.9 | 0.00 | 1.07 | 0.99 | 60 | 993.0 |
| 20260509074556 | 11 | 131 | 4.8 | 22.5 | 0.00 | 1.09 | 0.99 | 60 | 993.0 |
| 20260509073056 | 12 | 153 | 12.9 | 25.7 | 0.00 | 1.09 | 0.99 | 59 | 992.7 |
| 20260509071556 | 12 | 200 | 16.1 | 32.2 | 0.00 | 1.09 | 0.99 | 59 | 992.6 |
| 20260509070054 | 12 | 40 | 6.4 | 22.5 | 0.00 | 1.17 | 0.99 | 60 | 992.4 |
| 20260509064554 | 12 | 50 | 6.4 | 27.4 | 0.00 | 1.17 | 0.99 | 60 | 992.3 |
| 20260509063102 | 12 | 146 | 6.4 | 16.1 | 0.00 | 1.17 | 0.99 | 60 | 992.4 |
| 20260509061552 | 12 | 117 | 3.2 | 25.7 | 0.00 | 1.17 | 0.99 | 60 | 992.4 |
| 20260509060059 | 12 | 165 | 8.0 | 24.1 | 0.00 | 1.17 | 0.99 | 60 | 992.1 |
| 20260509054554 | 12 | 139 | 4.8 | 19.3 | 0.00 | 1.17 | 0.99 | 62 | 991.9 |
| 20260509053117 | 11 | 8 | 1.6 | 8.0 | 0.00 | 1.17 | 0.99 | 67 | 991.6 |
| 20260509051549 | 12 | 259 | 0.0 | 14.5 | 0.00 | 1.17 | 0.99 | 68 | 991.6 |
| 20260509050048 | 12 | 136 | 0.0 | 8.0 | 0.00 | 1.24 | 0.99 | 72 | 991.6 |
| 20260509044547 | 12 | 162 | 0.0 | 4.8 | 0.00 | 1.24 | 0.99 | 74 | 991.4 |
| 20260509043102 | 14 | 27 | 0.0 | 9.7 | 0.00 | 1.24 | 0.99 | 67 | 991.4 |
| 20260509041557 | 15 | 266 | 0.0 | 4.8 | 0.00 | 1.24 | 0.99 | 61 | 991.4 |
| 20260509040055 | 15 | 262 | 0.0 | 8.0 | 0.00 | 1.24 | 0.99 | 59 | 991.4 |
| 20260509034600 | 14 | 39 | 0.0 | 6.4 | 0.00 | 1.24 | 0.99 | 58 | 991.5 |
| 20260509033044 | 14 | 76 | 0.0 | 8.0 | 0.00 | 1.24 | 0.99 | 57 | 991.6 |
| 20260509031543 | 15 | 158 | 3.2 | 14.5 | 0.00 | 1.24 | 0.99 | 55 | 991.7 |
| 20260509030041 | 15 | 175 | 6.4 | 14.5 | 0.00 | 1.24 | 0.99 | 57 | 991.4 |
| 20260509024539 | 15 | 97 | 1.6 | 4.8 | 0.00 | 1.24 | 0.99 | 64 | 991.4 |
| 20260509023038 | 14 | 62 | 1.6 | 8.0 | 0.00 | 1.24 | 0.99 | 65 | 991.4 |
| 20260509021536 | 13 | 350 | 0.0 | 4.8 | 0.00 | 1.24 | 0.99 | 68 | 991.5 |
| 20260509020040 | 13 | 84 | 4.8 | 12.9 | 0.00 | 1.24 | 0.99 | 66 | 991.6 |
| 20260509014534 | 14 | 69 | 1.6 | 16.1 | 0.00 | 1.24 | 0.99 | 65 | 991.7 |
| 20260509013041 | 13 | 329 | 1.6 | 4.8 | 0.00 | 1.24 | 0.99 | 67 | 991.7 |
| 20260509011531 | 13 | 65 | 3.2 | 9.7 | 0.00 | 1.24 | 0.99 | 67 | 992.1 |
| 20260509010042 | 13 | 37 | 1.6 | 9.7 | 0.00 | 1.24 | 0.99 | 68 | 992.1 |
| 20260509004528 | 13 | 66 | 6.4 | 14.5 | 0.00 | 1.24 | 0.99 | 70 | 992.1 |
| 20260509003024 | 13 | 86 | 3.2 | 11.3 | 0.00 | 1.24 | 0.99 | 69 | 992.3 |
| 20260509001518 | 13 | 61 | 3.2 | 16.1 | 0.00 | 1.24 | 0.99 | 70 | 992.8 |
| 20260509000015 | 12 | 137 | 4.8 | 16.1 | 0.00 | 1.24 | 0.99 | 72 | 993.1 |
| 20260508234521 | 11 | 310 | 0.0 | 4.8 | 0.00 | 1.24 | 0.99 | 79 | 993.0 |
| 20260508233013 | 11 | 257 | 0.0 | 4.8 | 0.00 | 1.24 | 0.99 | 87 | 993.2 |
| 20260508231505 | 10 | 307 | 0.0 | 1.6 | 0.00 | 1.24 | 0.99 | 88 | 993.0 |
| 20260508230004 | 10 | 277 | 0.0 | 4.8 | 0.00 | 1.24 | 0.99 | 89 | 993.0 |
| 20260508224502 | 10 | 301 | 0.0 | 4.8 | 0.00 | 1.24 | 0.99 | 89 | 993.0 |
| 20260508223002 | 10 | 223 | 0.0 | 6.4 | 0.00 | 1.24 | 0.99 | 85 | 993.0 |
| 20260508221557 | 8 | 150 | 3.2 | 9.7 | 0.00 | 1.24 | 0.99 | 94 | 992.8 |
| 20260508220058 | 7 | 311 | 0.0 | 0.0 | 0.00 | 1.24 | 0.99 | 95 | 992.8 |
| 20260508214605 | 6 | 323 | 0.0 | 1.6 | 0.00 | 1.24 | 0.99 | 96 | 992.9 |
| 20260508213055 | 6 | 304 | 0.0 | 0.0 | 0.00 | 1.24 | 0.99 | 96 | 993.2 |
| 20260508211554 | 5 | 145 | 0.0 | 3.2 | 0.00 | 1.24 | 0.99 | 96 | 993.9 |
| 20260508210054 | 5 | 81 | 0.0 | 6.4 | 0.00 | 1.24 | 0.99 | 96 | 994.2 |
| 20260508204553 | 5 | 176 | 0.0 | 4.8 | 0.00 | 1.24 | 0.99 | 96 | 994.2 |
| 20260508203051 | 5 | 26 | 0.0 | 0.0 | 0.00 | 1.24 | 0.99 | 96 | 994.4 |
| 20260508201547 | 5 | 346 | 0.0 | 3.2 | 0.00 | 1.24 | 0.99 | 96 | 993.9 |
| 20260508200053 | 5 | 59 | 0.0 | 8.0 | 0.00 | 1.24 | 0.99 | 96 | 993.7 |
| 20260508194541 | 7 | 317 | 0.0 | 4.8 | 0.00 | 1.24 | 0.99 | 97 | 993.1 |
| 20260508193040 | 7 | 319 | 0.0 | 0.0 | 0.00 | 1.24 | 0.99 | 97 | 992.4 |
| 20260508191538 | 7 | 312 | 0.0 | 0.0 | 0.00 | 1.24 | 0.99 | 96 | 992.2 |
| 20260508190042 | 7 | 312 | 0.0 | 12.9 | 0.00 | 1.24 | 0.99 | 96 | 992.3 |
| 20260508184538 | 7 | 105 | 0.0 | 6.4 | 0.03 | 1.24 | 0.99 | 96 | 992.3 |
| 20260508183035 | 7 | 67 | 0.0 | 0.0 | 0.05 | 1.24 | 0.99 | 96 | 992.3 |
| 20260508181532 | 7 | 102 | 0.0 | 6.4 | 0.05 | 1.24 | 0.99 | 96 | 991.9 |
| 20260508180031 | 7 | 96 | 3.2 | 9.7 | 0.08 | 1.24 | 0.99 | 97 | 992.1 |
| 20260508174536 | 7 | 134 | 3.2 | 14.5 | 0.08 | 1.22 | 0.97 | 97 | 991.8 |
| 20260508173026 | 7 | 113 | 1.6 | 8.0 | 0.05 | 1.17 | 0.91 | 97 | 991.3 |
| 20260508171525 | 7 | 105 | 0.0 | 9.7 | 0.05 | 1.17 | 0.91 | 97 | 991.1 |
| 20260508170024 | 7 | 146 | 1.6 | 8.0 | 0.03 | 1.17 | 0.89 | 97 | 990.8 |
| 20260508164527 | 7 | 31 | 0.0 | 9.7 | 0.00 | 1.14 | 0.89 | 97 | 990.8 |
| 20260508163017 | 7 | 131 | 1.6 | 8.0 | 0.03 | 1.14 | 0.89 | 97 | 990.3 |
| 20260508161519 | 7 | 102 | 1.6 | 6.4 | 0.03 | 1.14 | 0.89 | 97 | 989.9 |
| 20260508160020 | 7 | 150 | 1.6 | 9.7 | 0.03 | 1.14 | 0.89 | 97 | 989.9 |
| 20260508154512 | 7 | 110 | 1.6 | 12.9 | 0.05 | 1.14 | 0.89 | 97 | 989.8 |
| 20260508153009 | 7 | 98 | 0.0 | 9.7 | 0.05 | 1.12 | 0.86 | 97 | 989.8 |
| 20260508151506 | 7 | 142 | 0.0 | 4.8 | 0.10 | 1.12 | 0.86 | 97 | 989.4 |
| 20260508150005 | 7 | 124 | 0.0 | 4.8 | 0.10 | 1.09 | 0.84 | 97 | 989.3 |
| 20260508144502 | 7 | 104 | 0.0 | 4.8 | 0.13 | 1.09 | 0.81 | 97 | 989.1 |
| 20260508143001 | 7 | 66 | 0.0 | 3.2 | 0.18 | 1.07 | 0.79 | 97 | 989.0 |
| 20260508141601 | 7 | 1 | 0.0 | 4.8 | 0.36 | 1.04 | 0.79 | 97 | 988.9 |
| 20260508134600 | 7 | 79 | 0.0 | 3.2 | 0.56 | 0.97 | 0.71 | 97 | 988.8 |
| 20260508133055 | 7 | 11 | 3.2 | 8.0 | 0.58 | 0.89 | 0.64 | 97 | 988.7 |
| 20260508131559 | 8 | 95 | 0.0 | 4.8 | 0.41 | 0.69 | 0.43 | 97 | 988.7 |
| 20260508130108 | 8 | 97 | 3.2 | 9.7 | 0.30 | 0.53 | 0.28 | 97 | 988.3 |
| 20260508124549 | 8 | 327 | 0.0 | 4.8 | 0.18 | 0.41 | 0.15 | 97 | 987.7 |